Find Starlink 11209

NORAD ID: 61200 Int'l Des: 2024-171 Owner: SPXS Country: US Constellation: starlink operational
別名: STARLINK-11209 [DTC] celestrak
LEOCIRCULAR

現在のビュー

3D地球を読み込み中...

About Starlink 11209

Starlink 11209 (NORAD 61200) is a starlink constellation satellite (v2 mini d2c) launched Sep 20, 2024 by SPXS of US. It operates in LEO, CIRCULAR orbit with a mass of 960.00 kg.

次回通過

Passes for default location (London). Set your location on the main map for personalized predictions.

高度履歴

Loading altitude history...

軌道要素

1 61200U 24171A 26263.24723984 -.00001651 00000-0 -87771-5 0 9992
2 61200 53.1591 297.3597 0001075 70.2444 289.8689 15.69694723115864
Epoch: Sep 20, 2026 • Age: 21 hours

現在のステータス

高度 360.0 km
遠地点 / 近地点 N/A
速度 7.70 km/s
衛星直下点 8.95°N, 68.69°E
打ち上げ日 Sep 20, 2024
運用期間 1.9 years
タイプ internet

技術仕様

分類 Payload
質量 960.00 kg
乾燥質量 910.00 kg
長さ 0.30 m
スパン 29.00 m
形状 ? Box + pan
製造者 SPXS
バスタイプ Starlink V2MD
フェーズステータス In Orbit
所有者/国 SPXS/US

Most Searched